GFSFLT1_sfc_30mbdewp_225.txt.gz
Dewpoint
44 54 56 57 58 61 61 62 62 63 63 64 64 64 64 64 64 63 64 64 63 62 60 60 62 60 60 61 60 60 59 58
19 27 50 57 58 60 62 62 63 63 62 62 61 62 62 63 63 63 63 64 64 63 61 61 61 59 59 61 60 60 59 60
18 20 24 40 54 59 61 63 63 63 62 62 61 61 61 62 62 63 63 63 63 63 62 60 61 59 60 60 60 60 60 61
20 23 24 27 36 52 58 62 64 63 62 62 61 62 61 61 61 62 63 63 63 63 62 61 61 61 59 61 61 60 58 61
18 19 22 25 26 39 50 57 63 64 64 62 61 61 60 61 61 61 61 62 62 63 62 62 61 61 60 60 61 61 61 60
17 18 21 23 30 34 37 47 60 63 64 63 62 61 61 62 63 61 62 62 62 62 63 62 62 62 62 61 61 62 61 59
20 20 22 20 26 31 48 47 53 62 64 63 63 62 62 63 64 63 63 63 63 63 62 63 63 62 63 63 63 63 62 62
22 21 18 18 22 26 32 51 56 61 64 64 64 63 63 63 64 64 64 64 64 64 64 65 64 64 64 64 64 64 64 63
21 19 21 22 28 36 38 36 50 60 64 64 64 64 63 63 64 65 65 65 65 65 66 66 65 65 65 65 65 65 65 64
23 23 24 26 30 33 39 43 46 55 63 64 65 65 64 64 65 65 65 66 66 66 66 66 66 66 66 66 65 65 65 64
24 26 29 37 41 43 47 50 49 56 62 64 65 66 66 66 66 65 65 66 66 66 66 66 66 66 66 66 65 65 64 64
26 28 39 46 52 53 53 53 53 58 63 64 65 66 66 66 66 66 66 66 66 66 66 66 65 65 65 64 64 64 63 63
25 36 41 46 52 56 55 56 56 58 61 63 64 65 65 65 65 66 66 65 66 65 65 65 65 64 64 63 63 63 62 62
27 32 39 46 51 56 57 57 57 58 59 61 62 63 64 64 65 65 64 65 64 64 64 64 64 63 63 63 63 62 61 60
27 30 37 45 54 57 57 57 59 60 60 60 61 61 61 61 62 63 63 63 63 63 63 63 63 62 62 61 60 58 56 55
28 29 31 35 50 57 58 58 59 60 61 61 61 61 62 63 63 63 62 62 62 62 61 61 60 59 58 57 55 53 51 50
31 31 32 32 43 54 58 58 58 59 59 60 60 61 62 62 62 61 60 60 60 60 59 57 56 54 53 53 52 50 49 48
33 33 33 33 36 46 54 58 58 59 59 58 58 58 58 59 59 59 59 58 57 56 54 53 52 49 49 49 49 48 47 46
35 35 34 34 36 43 53 58 58 58 58 58 58 57 58 58 58 57 56 55 54 53 51 50 48 45 46 46 45 43 42 41

GFSFLT1_sfc_30mbdewp_231.txt.gz
Dewpoint
45 41 43 43 43 46 51 58 59 63 63 64 62 61 62 61 60 60 61 63 63 61 57 57 57 55 55 56 56 56 55 53
41 42 44 45 45 46 49 56 60 61 61 61 61 61 61 61 60 61 61 62 64 63 61 59 59 56 56 57 58 57 55 56
27 38 44 46 46 49 51 53 60 61 61 60 60 60 60 60 61 61 62 62 64 64 63 59 59 57 58 58 58 57 57 56
17 20 34 42 46 50 51 55 59 61 61 61 60 60 60 59 60 61 62 63 64 65 64 63 60 60 59 60 60 59 56 57
17 19 20 24 31 43 50 53 57 62 64 61 60 59 59 59 61 61 62 64 64 65 65 65 64 62 61 61 61 61 60 57
15 16 18 21 26 34 42 45 51 57 63 65 63 62 61 61 62 62 63 64 65 65 66 66 65 65 63 62 61 62 62 60
11 14 16 15 17 25 40 45 43 46 59 65 65 64 63 61 61 62 63 64 65 65 65 66 66 65 65 64 64 64 63 62
12 12 14 14 18 25 33 41 44 45 51 62 66 65 65 64 62 62 63 63 64 65 66 66 66 66 66 65 65 64 64 63
18 17 16 15 19 26 33 37 43 46 49 56 64 66 65 65 64 62 63 63 64 65 67 67 67 66 66 66 65 65 65 65
15 21 20 23 25 26 33 36 40 43 46 52 61 65 65 64 64 64 63 64 63 65 66 66 67 66 66 66 65 65 64 65
16 19 20 26 29 29 40 44 41 41 45 50 54 62 64 64 64 63 63 64 64 64 66 66 66 66 66 66 65 65 65 66
22 21 24 27 32 36 39 45 49 50 51 49 54 57 60 62 63 63 63 64 64 64 66 67 66 66 67 66 66 66 66 66
26 27 27 28 30 31 36 43 48 51 53 54 54 55 59 61 62 63 63 64 64 65 65 66 66 67 67 67 66 66 66 66
21 24 28 28 29 32 35 41 45 52 55 55 54 55 57 60 61 63 63 64 64 65 65 66 66 67 67 67 66 66 66 66
27 28 29 30 33 33 34 35 44 50 53 55 55 54 57 60 62 63 64 65 65 65 66 66 66 67 66 66 66 66 66 65
30 30 31 32 32 32 34 34 37 45 52 55 56 56 56 59 62 63 64 65 65 66 66 66 66 66 65 65 65 65 63 60
31 31 31 31 33 33 32 35 39 43 50 55 58 59 57 58 61 63 64 65 67 67 66 66 65 65 63 64 64 62 58 56
26 30 30 31 32 34 34 35 38 40 45 52 57 61 61 61 63 64 65 66 66 66 65 65 63 60 61 60 59 59 56 54
21 23 28 31 32 35 33 33 35 38 41 48 53 58 62 62 62 63 63 62 63 63 62 61 60 55 55 55 55 54 52 50

GFSFLT1_sfc_30mbdewp_234.txt.gz
Dewpoint
46 45 42 41 47 54 59 61 62 66 66 66 65 64 64 63 63 62 63 64 63 62 61 59 61 58 59 59 59 60 59 58
45 46 43 41 46 52 57 60 61 64 65 65 64 63 63 63 63 63 62 63 64 63 61 61 61 59 58 59 60 59 59 58
38 46 44 44 45 52 55 59 61 63 64 64 64 64 63 63 63 63 63 63 64 64 62 61 60 59 59 59 58 59 59 60
26 43 46 48 47 51 53 58 61 61 63 64 64 63 64 63 63 63 63 63 64 64 64 63 61 59 59 59 60 59 57 58
17 27 43 47 48 52 52 55 60 61 62 62 62 61 60 61 62 62 62 63 63 64 65 64 63 61 59 59 61 61 59 58
15 18 28 44 49 52 54 56 59 61 62 61 62 61 61 61 61 61 63 63 63 64 65 65 64 63 62 60 60 61 61 59
17 18 22 24 34 37 44 47 53 61 63 63 62 62 61 61 61 61 62 63 64 64 65 65 66 65 64 63 62 62 61 61
15 16 17 19 21 32 42 45 42 48 60 65 64 63 63 62 62 63 62 63 64 64 65 65 66 66 65 64 64 63 63 62
20 17 21 23 26 24 30 43 45 47 49 51 64 66 64 64 64 63 63 63 64 65 66 66 66 66 66 66 65 65 63 65
20 20 22 25 28 30 37 35 47 50 50 51 52 58 66 64 65 65 64 64 65 66 67 67 66 66 66 66 66 65 65 64
21 24 25 26 30 32 37 40 41 45 47 51 50 53 61 66 66 65 65 64 66 65 66 67 67 67 67 66 66 66 65 65
27 29 31 32 32 34 41 45 45 48 52 49 51 51 55 65 67 66 65 65 64 65 66 66 67 66 67 66 66 65 65 65
25 28 28 30 33 34 35 42 49 51 55 55 56 57 57 57 63 65 65 65 65 64 65 66 66 66 66 66 66 65 64 64
28 25 25 28 30 36 37 39 42 48 52 55 58 58 56 56 59 63 64 64 64 64 65 65 66 66 66 66 66 64 64 64
31 33 32 33 36 36 37 37 38 41 46 51 53 58 59 57 57 59 63 64 64 64 65 65 66 67 67 67 67 65 65 65
27 29 33 34 33 35 36 37 38 40 43 47 52 57 59 59 59 61 61 64 64 64 64 65 66 67 67 67 66 65 65 65
25 27 29 32 34 36 35 36 39 39 44 45 52 55 60 60 59 61 64 64 65 65 64 65 66 66 66 65 66 66 65 62
20 23 25 26 32 36 35 38 39 40 41 43 48 53 58 61 61 62 63 63 64 65 66 66 66 66 63 63 64 64 60 59
28 29 30 31 32 32 36 38 35 36 38 42 45 50 56 62 62 62 63 64 64 64 65 65 63 60 60 61 61 59 57 54

GFSFLT1_sfc_30mbdewp_237.txt.gz
Dewpoint
47 47 49 54 57 60 61 62 64 65 65 64 65 62 63 62 60 62 63 63 62 63 62 61 61 61 61 61 60 61 59 58
48 47 46 52 55 60 60 61 64 65 65 63 63 64 63 62 63 60 63 64 63 61 62 60 60 60 59 59 60 58 59 59
41 47 45 46 53 58 60 60 63 65 64 65 63 63 64 64 63 63 61 64 64 62 60 61 59 60 59 58 58 59 59 59
15 46 44 42 52 57 59 60 62 64 64 65 65 64 64 63 63 63 63 63 64 64 62 60 61 58 59 58 58 58 57 59
12 32 46 43 51 55 58 60 60 63 64 64 64 63 62 63 63 63 63 64 64 64 63 62 61 61 58 59 59 59 57 57
14 17 40 47 49 53 57 59 60 60 64 64 63 63 63 62 63 63 63 63 63 64 64 63 63 61 61 59 59 60 60 57
14 17 22 43 48 53 55 58 59 60 61 63 63 62 62 62 62 62 62 63 63 63 65 64 64 63 61 61 60 60 59 60
14 10 17 23 44 52 54 56 58 60 61 61 62 62 62 61 61 61 62 62 63 63 64 64 65 64 63 62 61 60 60 60
22 18 15 23 25 34 45 51 54 60 61 61 61 61 61 61 61 61 61 62 63 64 64 63 64 65 65 64 63 62 62 61
21 26 23 23 26 33 32 35 41 49 59 62 62 61 62 62 62 62 62 63 63 64 65 64 64 65 65 66 64 63 63 63
26 29 32 33 33 33 39 42 43 47 52 54 57 61 64 64 64 64 64 64 65 64 65 65 64 65 66 65 65 65 64 63
28 28 29 29 34 39 45 42 40 42 44 45 48 49 51 55 65 66 65 66 64 65 66 66 66 65 65 66 65 65 65 64
31 33 29 28 32 36 37 39 40 51 52 52 53 54 55 53 55 65 67 66 66 65 65 66 66 66 66 66 66 65 65 65
28 30 32 35 37 37 37 38 38 39 41 51 55 56 58 57 57 59 63 66 66 65 65 65 66 67 66 66 66 66 65 65
27 27 30 33 35 35 35 34 37 39 39 42 48 53 56 58 59 57 57 61 65 65 65 65 66 66 66 66 66 66 65 65
24 26 28 32 35 36 37 36 37 39 37 38 40 47 54 57 60 60 60 58 60 64 64 64 65 66 66 66 66 66 65 65
30 29 29 30 32 32 33 38 41 43 42 44 44 44 47 53 58 60 61 62 63 62 64 64 64 65 65 65 66 66 66 64
32 33 34 33 31 32 33 36 38 36 36 38 40 42 43 47 55 60 61 61 62 63 64 64 64 64 64 63 63 66 66 64
32 32 32 32 34 32 32 33 35 38 36 35 37 39 43 47 53 59 60 61 61 62 63 64 65 64 63 61 61 66 65 63

GFSFLT1_sfc_30mbdewp_243.txt.gz
Dewpoint
50 53 55 59 61 61 61 59 60 61 61 62 61 60 62 62 62 62 63 64 64 62 62 61 63 63 62 61 60 60 58 57
48 51 54 56 60 61 61 61 60 60 59 60 60 59 59 60 61 61 62 63 64 64 62 63 62 61 61 61 60 59 58 58
22 48 51 54 58 61 62 62 61 60 58 58 60 59 60 60 60 60 61 62 63 63 63 62 62 62 61 61 60 59 59 59
12 21 48 51 55 59 61 62 62 62 59 58 60 62 62 61 61 60 61 61 62 63 62 62 62 62 61 61 60 59 58 59
11 11 21 49 52 57 60 61 62 63 61 59 59 61 60 60 61 61 60 61 62 63 62 62 61 62 61 61 61 60 60 58
21 19 15 20 48 53 58 60 61 62 62 61 59 59 60 60 61 62 61 61 61 62 62 62 61 61 61 60 60 59 59 59
24 23 24 23 29 49 55 58 60 62 63 62 61 59 58 59 62 62 62 62 62 62 63 62 61 61 60 60 60 60 59 59
31 30 32 33 24 43 52 56 59 61 63 62 62 60 59 58 60 62 62 63 63 62 63 63 62 62 61 61 61 60 59 59
29 33 34 38 39 40 51 55 58 60 62 63 62 62 60 60 60 61 62 62 63 63 63 63 63 63 63 62 61 61 60 59
29 31 37 38 40 43 52 55 58 59 61 63 63 63 62 61 62 62 62 62 62 63 64 64 64 64 63 63 62 61 61 60
31 32 33 34 35 39 46 50 56 59 60 62 63 63 63 63 62 62 62 63 63 63 63 64 64 64 64 63 63 63 62 61
32 33 33 33 34 34 37 42 50 52 59 60 62 62 63 63 62 62 62 62 62 63 63 63 63 63 64 64 64 63 63 62
33 33 33 33 33 34 35 36 42 44 54 55 60 61 62 63 63 63 64 64 64 63 63 63 63 64 64 63 63 63 63 63
31 31 32 32 33 33 34 35 36 40 45 47 54 57 56 56 58 59 59 60 63 65 65 64 64 64 64 64 63 63 64 64
31 31 31 31 32 33 33 34 36 37 39 42 45 46 48 53 56 57 58 59 59 60 62 64 65 65 65 65 65 64 64 64
28 29 30 30 31 32 32 33 34 36 37 38 40 41 45 45 47 50 53 56 58 61 61 62 63 64 64 65 66 65 65 64
30 30 29 30 30 30 31 32 33 35 36 37 39 39 40 42 44 47 48 46 49 56 59 61 61 61 62 61 61 63 65 65
29 28 28 29 30 31 31 32 32 33 34 36 37 37 38 38 40 41 42 43 49 49 51 55 57 60 61 60 60 60 61 63
29 29 30 30 30 32 31 29 29 31 31 33 35 35 35 36 39 39 39 41 46 48 48 51 54 54 59 58 57 57 58 59

GFSFLT1_sfc_30mbdewp_246.txt.gz
Dewpoint
38 52 54 58 59 59 58 60 62 64 64 64 64 63 64 63 63 63 64 64 63 62 61 61 62 62 62 61 61 60 60 59
15 35 52 56 60 59 59 58 60 62 62 62 62 61 62 62 62 62 63 63 64 62 61 61 62 62 62 61 61 60 59 58
16 17 35 54 58 60 60 59 59 60 59 60 59 59 60 61 61 61 62 62 63 63 61 61 61 61 61 61 60 59 59 59
20 18 17 41 55 59 60 60 59 59 58 58 58 58 59 58 59 59 60 61 62 63 62 61 61 61 60 61 61 60 58 59
25 23 22 19 46 56 60 60 60 59 59 57 56 56 55 56 56 58 58 60 60 61 61 62 61 61 61 61 61 60 60 58
30 33 31 30 26 38 57 60 61 61 60 57 56 55 56 55 56 57 59 60 60 60 61 61 60 61 60 60 61 61 60 59
31 35 37 38 41 41 31 56 60 61 61 60 57 56 56 56 57 58 59 60 61 61 61 61 61 61 60 61 61 61 60 60
32 32 32 33 36 40 47 42 58 61 61 61 59 58 57 56 57 59 59 60 60 60 61 61 61 61 61 61 61 60 60 60
32 33 32 33 33 36 41 50 54 59 61 62 61 59 59 57 58 59 60 60 61 62 61 61 62 62 61 61 61 60 60 60
32 32 32 32 33 34 35 39 46 57 61 62 62 62 61 60 59 60 62 62 62 63 63 62 63 63 62 62 61 61 61 60
32 32 32 32 33 33 35 35 38 44 53 61 63 63 63 63 62 61 61 62 63 63 63 63 63 63 63 63 62 62 61 61
33 32 31 32 33 33 34 35 35 38 43 54 60 63 63 63 63 62 63 63 63 63 63 63 63 63 64 63 63 63 62 62
31 32 31 31 32 32 32 32 34 36 39 42 43 52 59 63 63 63 64 64 64 64 64 63 64 63 64 63 63 63 63 62
29 28 28 28 29 31 31 31 31 33 36 38 42 42 44 49 56 59 61 62 63 62 63 61 62 64 64 63 63 63 63 63
28 27 26 26 27 29 30 31 31 32 32 36 38 40 41 42 44 48 52 57 60 62 63 60 59 62 64 64 64 63 63 63
28 26 25 26 27 29 31 31 30 31 31 32 36 37 37 38 39 42 44 44 47 56 60 61 62 63 63 64 64 64 64 64
28 27 27 28 28 30 32 30 30 31 30 31 34 35 35 36 36 37 40 41 41 48 50 55 56 59 60 59 59 60 61 63
29 28 29 30 29 31 31 30 30 30 31 31 32 34 34 34 34 35 37 38 41 42 45 49 52 53 54 56 57 58 59 59
31 30 31 31 31 30 30 30 30 31 31 31 32 33 33 33 33 33 34 36 37 41 42 46 47 51 52 55 56 57 57 57

GFSFLT1_sfc_30mbdewp_252.txt.gz
Dewpoint
36 39 41 39 40 50 55 56 59 60 62 63 62 62 63 62 61 60 60 61 61 61 58 56 57 56 55 54 54 54 53 50
36 38 39 41 43 45 49 56 58 59 59 59 59 58 60 62 61 60 61 61 60 61 58 57 58 56 54 54 55 55 53 54
34 36 38 40 43 45 46 49 55 59 59 58 56 55 57 59 60 60 61 61 61 61 60 56 56 56 56 56 56 54 53 53
33 33 35 36 38 43 44 46 49 54 60 60 59 57 56 56 58 58 60 61 61 62 60 60 58 58 55 59 58 57 51 52
33 33 33 35 37 38 41 44 47 51 56 60 59 58 56 56 56 57 58 60 61 62 63 61 62 59 58 58 59 58 57 51
34 34 33 32 35 36 37 39 43 47 53 58 61 60 59 58 57 56 58 60 61 61 62 62 63 62 61 61 59 60 58 57
35 35 33 32 33 33 34 35 36 41 47 52 59 61 60 59 58 56 56 57 58 60 61 63 64 62 62 61 61 60 60 58
34 34 33 32 31 31 33 33 31 36 42 45 49 56 62 61 60 59 57 56 57 58 60 62 62 63 62 61 61 61 61 60
29 30 31 32 32 31 31 32 34 35 35 41 44 47 50 59 62 61 60 58 58 59 60 61 62 61 61 62 62 61 61 61
27 26 28 29 31 33 33 32 33 35 35 37 40 43 46 48 49 51 59 61 60 60 61 61 61 61 61 61 61 61 60 62
28 26 26 26 28 29 35 33 32 34 35 35 38 39 41 44 47 47 48 49 59 62 61 62 62 62 62 62 61 61 62 62
28 26 26 26 27 27 31 34 32 32 34 35 36 37 39 41 41 43 45 46 48 50 63 63 62 63 63 63 62 62 62 62
28 27 27 27 27 28 28 30 31 32 33 34 36 37 37 39 39 40 41 42 44 45 48 57 64 64 64 63 63 63 62 62
27 26 27 27 27 28 27 27 29 30 32 34 36 36 36 37 37 39 39 39 41 43 43 45 51 62 64 64 64 64 64 63
27 27 27 27 27 27 26 27 28 29 30 32 35 37 37 36 37 37 37 38 38 39 40 43 45 47 62 62 63 64 64 63
26 27 27 27 27 26 26 27 28 29 29 30 32 34 36 38 37 37 37 37 37 37 38 39 42 44 47 45 48 60 62 62
26 27 26 27 27 27 26 27 28 29 28 29 29 31 32 34 37 38 37 36 36 37 37 37 36 37 40 39 42 45 56 61
26 27 27 27 26 27 27 27 27 27 28 28 28 29 30 31 33 34 37 37 37 36 37 37 36 36 36 38 37 38 46 56
28 28 28 26 26 27 28 27 26 26 26 28 29 29 29 30 30 31 34 35 37 37 36 37 37 35 37 37 37 36 38 48

GFSFLT1_sfc_30mbdewp_255.txt.gz
Dewpoint
37 38 40 45 46 47 49 53 56 59 60 61 61 60 60 60 59 58 60 59 62 62 60 60 58 56 55 54 55 54 54 52
35 37 38 39 44 46 46 49 52 55 58 59 60 59 58 59 59 60 60 61 61 63 61 60 60 57 56 57 56 56 54 54
34 35 36 38 39 41 45 47 49 52 53 57 59 59 58 57 58 60 61 61 62 62 62 60 59 58 58 58 58 56 55 55
34 34 34 35 37 38 39 42 46 50 51 55 58 60 60 59 57 57 59 61 62 63 62 63 60 59 58 60 60 59 55 55
35 34 34 34 36 38 36 36 37 43 47 49 51 51 58 57 58 57 58 60 61 63 64 63 63 60 59 59 61 60 60 55
35 34 34 34 35 36 38 38 38 37 39 42 46 47 50 56 61 60 60 60 60 62 63 64 64 63 62 60 58 60 59 59
31 32 33 33 36 36 33 33 37 39 38 41 40 43 46 49 50 56 61 60 60 61 62 63 64 64 64 63 62 60 61 60
27 28 29 31 33 37 37 35 31 34 37 39 41 41 43 45 47 47 49 53 61 60 61 63 63 64 65 65 63 63 61 62
26 27 28 28 29 33 36 35 35 34 33 36 40 40 41 42 44 44 44 46 48 50 55 62 63 63 64 65 64 63 63 62
26 26 27 28 29 29 33 32 31 34 35 33 37 40 39 41 42 42 44 42 44 46 48 51 61 62 63 64 64 63 63 63
26 25 27 28 29 29 30 31 30 31 34 35 36 38 38 40 41 41 42 42 42 43 46 47 52 59 63 62 63 63 63 63
26 26 27 28 28 28 28 28 28 30 31 34 38 39 38 39 39 40 41 41 42 42 42 44 47 50 52 62 63 63 62 62
26 26 26 27 27 27 27 27 28 29 29 30 33 39 38 38 38 39 39 39 40 42 41 41 43 47 51 49 58 63 63 63
27 26 26 27 27 26 25 26 27 28 28 28 30 33 35 37 38 39 39 38 39 39 40 40 41 43 47 46 46 47 53 63
25 26 27 26 26 25 25 25 26 26 26 27 28 30 32 33 35 37 38 39 39 38 38 39 39 41 45 44 42 42 44 49
24 25 25 24 25 24 25 25 25 25 25 25 27 29 31 31 33 35 35 37 39 39 38 38 39 39 39 40 42 41 40 45
24 24 24 25 23 23 23 24 25 25 24 25 25 28 29 30 33 33 33 34 35 37 38 38 39 38 38 37 37 38 39 44
24 25 25 24 22 22 23 24 23 23 24 23 25 27 28 29 30 30 33 34 34 34 36 37 38 39 39 39 38 38 39 40
26 27 25 22 20 21 23 23 22 22 22 24 25 26 27 28 29 30 32 33 34 34 35 34 35 36 37 37 38 39 38 38

GFSFLT1_sfc_30mbdewp_258.txt.gz
Dewpoint
38 39 41 43 46 48 50 52 54 53 54 58 64 63 63 63 62 61 61 63 62 63 63 64 62 61 59 58 58 58 58 56
36 38 40 40 42 42 44 48 51 52 52 54 58 57 61 61 62 61 62 62 63 63 62 63 64 61 60 59 58 58 57 57
35 37 39 40 41 40 40 42 44 46 50 51 53 55 57 61 61 62 61 61 63 64 63 62 62 62 61 60 59 58 58 57
35 36 37 39 41 41 41 41 41 43 43 44 49 51 52 53 53 55 60 62 61 62 64 64 63 62 61 60 60 59 58 57
35 35 36 37 38 38 39 41 42 42 44 42 43 44 44 47 49 50 51 53 60 61 62 64 64 63 62 61 60 60 59 58
32 33 34 36 39 40 40 37 38 39 41 43 42 42 42 42 43 45 46 47 51 51 54 61 64 64 64 62 61 61 60 59
28 29 31 32 37 40 39 38 38 38 38 40 41 40 42 42 43 42 44 43 43 47 48 51 53 63 64 64 62 62 61 60
27 27 28 31 34 36 35 34 35 38 39 38 38 40 39 41 42 42 42 43 43 42 44 48 50 53 58 64 64 63 62 60
26 27 28 30 32 34 35 34 33 35 37 38 39 39 39 39 41 42 41 43 43 44 43 45 46 51 54 56 64 64 64 63
26 26 28 30 31 33 35 33 32 34 35 37 38 39 39 39 40 40 40 41 39 42 44 43 44 47 50 53 55 61 64 64
26 26 28 29 30 31 34 33 31 33 34 35 35 38 39 40 40 40 40 39 40 41 41 42 42 44 48 51 49 50 52 62
26 26 27 28 30 30 29 30 31 32 33 33 35 36 37 39 39 40 40 40 40 40 40 40 41 42 44 48 47 47 46 48
27 27 27 28 28 28 27 29 29 29 29 31 33 35 34 35 36 38 39 40 40 41 40 40 40 40 41 43 44 44 43 43
27 26 26 26 27 27 26 27 27 27 27 28 30 32 33 34 34 36 36 37 38 40 39 40 40 40 40 43 42 41 41 41
24 25 26 26 26 25 25 26 26 26 26 27 29 31 32 33 34 35 35 36 36 36 37 38 40 40 41 41 40 40 39 39
23 25 25 25 25 24 24 25 26 26 26 26 28 29 30 31 33 34 35 35 35 36 36 37 37 39 38 40 40 40 39 39
24 24 25 25 23 22 23 25 25 26 25 26 26 28 29 30 32 33 33 34 35 35 36 36 36 36 37 39 37 37 38 39
24 25 26 24 22 21 23 24 24 25 25 25 26 27 28 29 30 31 32 33 34 34 33 34 34 34 35 35 35 36 37 39
27 28 26 23 20 23 23 24 24 24 25 26 26 27 28 29 30 31 32 33 32 32 32 32 33 33 34 34 34 34 34 35

GFSFLT1_sfc_30mbdewp_264.txt.gz
Dewpoint
38 38 40 41 40 39 40 41 41 43 47 52 53 53 52 50 53 53 54 55 55 57 64 64 63 62 62 61 60 60 59 58
37 36 36 38 39 37 37 37 40 40 40 43 46 48 45 44 47 49 50 52 53 53 53 53 56 63 63 62 61 60 59 59
37 38 38 38 37 38 37 37 38 40 38 39 42 43 42 42 43 43 45 47 49 50 51 52 53 53 59 62 63 61 60 59
37 38 38 37 39 38 38 38 38 39 40 37 37 39 38 38 40 41 42 44 46 46 48 50 50 51 52 54 55 58 61 61
37 36 35 33 35 38 37 39 39 38 39 39 37 37 37 38 40 40 40 41 42 43 44 47 49 49 50 51 53 55 56 58
37 36 35 35 33 35 35 36 39 39 39 39 38 37 37 38 39 38 38 39 40 41 41 45 45 47 48 49 50 53 53 54
35 35 34 34 34 34 35 34 37 38 38 38 37 37 37 37 38 38 38 38 38 39 40 42 43 44 45 47 49 51 51 50
32 32 33 33 32 34 35 33 33 36 37 39 38 38 38 38 38 38 38 37 38 39 39 41 41 42 43 44 46 48 50 48
31 32 33 33 33 32 33 33 32 34 35 37 38 38 38 38 39 39 39 39 39 39 39 40 40 40 41 42 43 45 48 47
30 32 32 33 34 32 32 32 32 33 34 34 36 36 36 36 37 37 38 39 38 38 40 40 41 40 41 41 40 42 44 45
30 31 32 32 32 32 31 31 30 30 32 35 34 35 34 35 35 35 36 37 37 38 39 38 39 39 40 41 39 40 42 40
30 30 30 29 29 29 28 28 27 27 30 30 34 33 33 33 33 34 35 36 37 37 38 37 37 37 39 40 38 38 37 36
29 29 28 27 27 28 27 26 26 26 29 29 31 31 31 31 32 33 35 35 37 36 35 36 35 34 35 35 37 37 35 35
29 28 27 26 26 27 26 26 26 27 28 29 29 30 30 29 31 33 34 34 34 34 34 33 33 34 34 35 33 33 34 33
27 27 26 26 25 26 25 26 26 27 28 28 28 29 29 30 32 33 33 33 32 32 32 31 32 32 32 31 32 34 34 34
26 27 26 25 25 26 25 26 27 28 27 28 28 29 30 31 32 33 32 32 32 31 31 31 32 31 30 32 34 34 34 33
26 26 23 23 24 24 25 25 28 28 28 28 29 30 31 32 32 31 31 31 30 30 31 31 31 32 33 34 34 33 32 32
26 23 22 23 24 24 24 26 29 28 28 29 30 30 30 32 31 30 30 30 30 30 31 32 32 33 33 33 33 32 31 32
25 23 22 24 24 24 24 27 29 28 29 29 30 30 31 30 29 29 29 29 30 31 31 30 30 31 32 32 32 31 31 32

GFSFLT1_sfc_30mbdewp_267.txt.gz
Dewpoint
35 37 38 38 37 37 36 38 42 44 49 50 46 43 44 47 47 47 48 49 50 51 53 53 54 56 60 62 62 61 60 59
37 37 37 37 37 37 36 37 38 36 38 42 42 39 39 41 40 42 44 47 45 48 49 50 51 53 54 54 56 59 61 60
38 38 38 37 37 38 37 36 38 38 36 37 40 41 38 39 39 40 41 42 43 43 45 46 48 49 50 52 52 54 56 58
35 34 36 36 36 37 37 37 37 38 36 35 35 37 35 36 38 38 39 40 41 40 43 44 45 47 47 49 49 52 52 53
33 32 32 34 35 36 38 38 37 38 38 36 35 35 34 37 38 38 38 39 40 40 41 43 43 44 44 45 48 48 50 49
33 32 32 33 34 34 35 37 37 38 38 37 36 36 37 38 38 38 38 38 39 40 40 42 42 42 43 44 44 47 49 48
34 34 34 33 34 33 33 35 36 38 38 38 36 35 36 35 36 37 37 37 38 39 39 40 41 41 42 42 43 44 44 46
33 33 32 33 33 33 33 32 34 36 37 37 37 36 36 36 36 36 36 37 37 37 39 40 40 41 41 41 43 41 42 43
32 32 31 32 32 33 32 32 32 34 34 36 36 36 36 36 36 36 36 37 38 37 39 40 40 41 41 41 42 40 40 42
31 32 32 32 32 32 31 30 31 33 34 34 34 34 33 33 33 34 36 36 36 37 38 38 38 38 39 40 41 39 40 38
31 32 33 33 32 32 32 29 28 30 32 34 33 33 32 32 33 33 35 35 36 37 36 36 36 35 36 37 37 38 36 37
31 32 33 32 31 30 29 27 27 28 30 32 31 30 30 31 32 33 35 35 36 35 34 34 34 33 35 34 34 33 33 33
31 31 30 29 29 28 27 27 26 28 30 30 30 29 30 31 32 34 35 34 34 33 33 32 33 33 34 32 31 32 33 34
30 29 27 27 28 27 26 26 27 28 29 28 28 29 30 31 33 33 33 32 32 32 32 32 32 33 33 32 34 33 33 33
29 27 26 27 28 26 26 26 28 28 28 28 29 30 31 32 32 32 32 32 31 31 31 32 33 33 32 33 32 32 32 32
27 27 26 26 27 26 26 28 28 28 28 29 29 31 32 31 31 31 31 31 31 31 31 32 32 32 32 32 31 30 30 31
27 26 26 25 25 25 26 28 28 28 29 29 30 31 31 30 30 30 30 30 31 31 30 29 30 30 32 31 31 30 30 30
26 25 24 25 25 25 27 28 29 29 29 30 30 31 30 29 30 30 30 30 31 30 29 29 29 30 30 31 31 30 29 30
26 24 24 25 25 25 28 29 29 29 29 29 31 30 29 29 29 29 30 31 31 30 30 30 29 29 30 29 31 29 29 29

GFSFLT1_sfc_30mbdewp_270.txt.gz
Dewpoint
35 36 36 36 35 35 37 39 43 47 48 43 40 41 41 41 42 43 44 43 45 46 48 49 51 53 53 53 54 56 58 61
37 36 36 35 35 34 35 36 37 37 39 40 36 36 38 38 39 40 41 41 42 44 44 45 48 48 48 50 50 53 56 54
35 35 35 35 35 35 35 35 36 35 36 38 38 36 37 38 38 38 39 40 40 41 43 42 44 44 45 46 48 49 51 52
34 33 34 35 35 36 36 36 36 35 35 34 34 35 36 35 37 37 39 40 40 40 41 41 42 42 43 44 44 45 47 47
33 32 32 33 35 36 36 37 35 36 35 35 35 34 34 37 38 38 38 39 40 40 41 42 41 42 42 42 42 45 44 45
31 32 32 33 34 35 36 37 37 37 36 35 35 35 36 37 37 37 37 38 39 40 40 40 41 41 42 41 42 41 43 42
32 33 33 33 33 34 35 36 36 37 36 36 35 34 35 34 34 35 36 37 38 38 39 40 40 41 41 41 42 40 41 41
32 32 32 32 31 32 33 34 35 36 36 36 35 34 34 33 34 34 35 35 36 37 38 39 39 40 41 41 41 40 41 39
32 32 32 32 32 31 32 33 34 34 35 34 34 33 33 34 34 34 35 35 36 37 37 37 38 38 38 39 40 40 37 38
32 32 32 32 32 31 31 32 33 34 33 33 32 32 32 32 33 34 34 35 35 36 35 35 35 35 36 37 36 36 35 35
32 32 32 32 32 31 30 30 30 34 33 32 31 31 32 32 34 34 34 35 35 34 34 34 34 34 35 34 32 34 34 34
32 32 33 31 32 31 28 29 29 31 31 30 29 30 31 33 33 33 33 33 33 33 33 33 33 34 34 33 33 33 32 33
31 32 33 31 30 28 27 28 28 30 30 29 30 31 32 31 32 32 32 32 33 32 33 33 33 34 34 32 31 32 31 31
31 32 31 29 28 27 26 27 28 29 29 29 30 31 31 31 31 31 32 32 32 32 32 33 32 33 32 31 30 30 30 30
31 30 29 29 28 27 26 28 29 28 28 29 30 31 30 30 30 31 31 31 31 31 32 32 31 32 29 30 30 30 30 30
30 28 28 28 28 27 27 28 28 28 29 29 31 31 30 30 30 30 31 31 31 31 30 30 30 30 30 29 29 29 29 28
29 27 27 28 27 26 28 28 28 29 29 30 31 29 29 29 30 30 30 31 31 30 30 30 30 29 30 29 29 30 29 28
28 27 26 27 26 27 28 28 30 29 29 30 30 29 29 29 30 30 30 30 31 30 29 30 29 30 29 30 29 28 28 28
27 26 26 27 26 28 29 29 30 29 29 30 30 29 29 29 29 29 30 30 30 30 29 29 29 28 28 29 29 28 27 27

GFSFLT1_sfc_30mbdewp_273.txt.gz
Dewpoint
33 34 35 36 40 43 43 43 49 47 45 42 41 39 40 39 40 40 41 41 43 42 43 46 46 45 47 48 49 53 58 53
32 33 33 33 35 38 40 40 40 41 40 36 36 35 36 38 38 39 39 40 40 41 40 41 41 42 43 44 46 49 49 48
31 32 32 32 33 34 35 37 38 37 37 37 34 34 35 36 37 38 38 38 39 38 39 39 40 39 40 40 44 41 45 47
30 31 32 32 32 32 32 34 36 36 34 34 35 35 34 33 34 35 38 38 38 39 39 39 39 38 39 38 41 41 39 43
31 31 31 31 33 34 33 33 33 35 35 34 33 30 30 34 34 35 35 37 37 38 38 39 40 39 39 38 39 40 40 39
30 30 31 32 33 34 34 34 34 35 36 35 32 31 32 33 33 34 35 36 36 37 39 39 39 39 40 40 40 40 41 42
30 31 32 32 33 34 35 34 34 35 35 35 33 32 31 30 32 31 33 34 34 37 37 38 38 38 38 39 40 40 40 40
30 31 30 31 33 34 35 34 34 35 34 33 33 33 33 32 31 32 32 32 33 35 36 36 36 37 38 39 38 37 36 36
31 30 30 31 32 33 34 34 34 34 33 33 32 32 31 32 33 32 32 33 33 35 35 35 36 37 37 37 36 35 35 35
31 31 31 31 32 34 34 34 34 33 32 32 32 32 33 33 32 33 32 33 32 34 34 35 35 35 35 34 34 34 34 34
31 31 32 32 32 33 36 35 33 33 31 31 31 32 33 32 32 32 33 33 33 33 34 34 35 35 34 33 32 33 33 33
31 31 32 32 32 31 33 34 34 32 31 32 32 32 31 32 32 32 33 33 33 33 33 34 34 34 32 31 31 31 32 32
31 31 32 32 31 30 30 32 31 31 31 32 32 31 31 31 31 32 33 33 34 33 33 33 33 31 31 31 31 31 31 31
31 31 31 31 30 28 29 30 30 29 30 31 32 30 30 30 31 32 33 32 32 32 32 32 32 31 31 30 30 30 30 30
31 31 31 31 29 27 28 30 30 29 29 30 30 29 30 30 31 31 31 31 31 30 30 31 31 30 30 30 29 30 30 30
31 32 31 30 29 28 28 30 29 29 29 29 30 30 30 31 31 31 32 31 31 30 30 30 30 29 29 29 29 29 29 29
31 31 30 29 28 27 29 29 29 29 29 30 29 29 30 31 31 31 32 31 30 30 30 30 30 28 29 29 29 29 29 28
31 30 30 29 28 28 29 29 30 30 30 30 29 29 29 30 30 30 30 31 30 30 28 29 29 28 29 29 29 28 28 28
30 30 29 29 29 28 30 30 30 30 30 29 28 29 28 29 29 29 30 29 29 30 28 28 28 27 27 28 28 27 26 27

GFSFLT1_sfc_30mbdewp_279.txt.gz
Dewpoint
48 49 50 54 54 53 52 51 50 50 49 48 47 47 46 46 44 45 45 44 45 45 45 46 44 43 41 42 43 42 43 42
45 47 50 53 51 49 49 48 46 46 46 44 43 44 44 43 42 41 41 41 41 41 39 38 38 40 40 41 40 36 34 41
41 44 49 52 51 48 47 46 45 45 45 45 44 41 40 40 39 39 38 39 39 38 39 38 39 37 40 41 41 38 35 40
37 39 43 49 51 48 45 43 42 41 42 41 40 39 37 35 34 35 37 37 38 40 40 41 39 39 39 40 42 40 37 37
33 35 37 40 45 48 48 45 43 42 41 40 38 35 33 33 33 35 36 38 38 39 41 41 41 41 42 41 42 41 40 37
30 31 32 34 37 39 40 40 38 38 38 37 35 33 33 32 34 35 37 38 38 39 40 41 41 41 42 42 42 41 39 38
28 29 29 29 31 34 35 34 35 35 34 34 33 32 30 31 32 32 32 34 37 39 39 41 41 41 41 41 41 41 41 40
29 28 27 28 30 33 32 31 32 33 33 34 34 33 34 34 32 31 31 33 36 39 39 40 39 40 40 40 39 38 40 39
29 28 27 29 31 31 29 29 30 31 32 33 33 33 31 31 32 32 32 34 37 39 39 39 38 37 38 38 37 37 39 38
30 29 28 29 31 31 30 30 30 30 31 32 32 32 30 33 35 34 34 34 36 38 38 37 36 36 36 35 36 36 37 35
31 29 29 29 31 31 32 31 29 30 31 32 32 33 33 34 34 34 35 36 36 37 36 36 34 35 35 34 33 35 35 35
31 29 29 29 30 32 33 31 30 31 31 30 32 31 33 34 34 35 36 35 35 35 34 32 33 33 34 34 32 33 33 34
32 30 29 29 30 32 32 31 31 32 31 31 32 32 32 33 34 35 36 35 34 34 33 32 32 32 33 33 33 33 32 32
32 30 30 29 30 31 31 31 30 31 30 31 31 31 32 33 34 35 35 35 33 33 33 32 32 32 31 31 32 32 32 32
32 31 30 29 29 30 30 30 30 29 29 29 30 30 31 33 33 33 33 33 32 32 32 32 31 29 29 30 31 32 31 31
33 32 31 30 30 30 30 29 29 28 28 27 29 31 32 32 32 32 32 32 31 31 32 31 28 25 26 29 33 30 29 29
33 32 31 30 29 29 29 29 28 27 27 27 29 30 30 31 32 32 33 32 31 31 30 30 28 23 29 29 30 32 29 28
33 33 32 32 30 30 30 30 29 27 27 27 29 29 30 31 32 32 32 32 31 31 30 30 29 26 29 29 29 31 28 29
33 34 33 32 32 30 31 30 29 28 27 27 27 28 29 30 30 30 32 32 30 30 30 30 29 27 28 28 28 30 28 28